EW3967 Weather Reports


Display with metric or nautical units.
time (UTC)temp
F
wind
direction
speed
MPH
gust
MPH
rain 1hr
in
rain 24hr
in
rain mn
in
humidity
%
barometer
mb
20260902083054 81 174 3.0 8.0 0.00 0.00 0.00 61 1012.7
20260902081548 81 203 5.0 10.0 0.00 0.00 0.00 60 1012.6
20260902080108 82 140 3.0 8.0 0.00 0.00 0.00 60 1012.8
20260902074547 82 158 3.0 7.0 0.00 0.00 0.00 59 1012.8
20260902073048 82 204 3.0 7.0 0.00 0.00 0.00 59 1012.8
20260902071546 82 165 2.0 8.0 0.00 0.00 0.00 58 1012.8
20260902070045 81 170 2.0 5.0 0.00 0.00 0.00 59 1012.8
20260902064603 81 174 1.0 5.0 0.00 0.00 0.00 58 1012.7
20260902063046 82 170 1.0 6.0 0.00 0.00 0.00 57 1012.7
20260902061552 82 211 3.0 6.0 0.00 0.00 0.00 56 1012.6
20260902060038 82 145 2.0 8.0 0.00 0.00 0.00 56 1012.6
20260902054537 82 152 3.0 5.0 0.00 0.00 0.00 55 1012.5
20260902053035 83 161 2.0 6.0 0.00 0.00 0.00 55 1012.6
20260902051534 83 147 1.0 5.0 0.00 0.00 0.00 54 1012.6
20260902050032 83 155 2.0 5.0 0.00 0.00 0.00 54 1012.6
20260902044534 84 160 2.0 5.0 0.00 0.00 0.00 53 1012.6
20260902043034 84 158 1.0 5.0 0.00 0.00 0.00 52 1012.6
20260902041530 84 155 1.0 4.0 0.00 0.00 0.00 51 1012.6
20260902040029 85 162 1.0 4.0 0.00 0.00 0.00 50 1012.5
20260902034528 85 142 1.0 4.0 0.00 0.00 0.00 50 1012.5
20260902033045 85 187 2.0 5.0 0.00 0.00 0.00 49 1012.4
20260902031527 86 153 1.0 4.0 0.00 0.00 0.00 48 1012.3
20260902030027 86 171 2.0 6.0 0.00 0.00 0.00 47 1012.1
20260902024526 87 164 1.0 5.0 0.00 0.00 0.00 47 1011.8
20260902023025 87 184 2.0 5.0 0.00 0.00 0.00 46 1011.5
20260902021527 87 156 1.0 3.0 0.00 0.00 0.00 45 1011.2
20260902020031 87 159 0.0 2.0 0.00 0.00 0.00 44 1011.1
20260902014528 88 159 0.0 1.0 0.00 0.00 0.00 44 1010.9
20260902013023 89 159 0.0 1.0 0.00 0.00 0.00 42 1010.8
20260902011523 91 159 0.0 2.0 0.00 0.00 0.00 40 1010.7
20260902010022 92 158 0.0 3.0 0.00 0.00 0.00 39 1010.7
20260902004522 94 139 0.0 5.0 0.00 0.00 0.00 37 1010.6
20260902003021 95 156 4.0 9.0 0.00 0.00 0.00 36 1010.6
20260902001521 96 153 3.0 7.0 0.00 0.00 0.00 35 1010.7
20260902000019 96 146 2.0 8.0 0.00 0.00 0.00 35 1010.7
20260901234519 97 117 4.0 10.0 0.00 0.00 0.00 34 1010.8
20260901233027 98 160 4.0 9.0 0.00 0.00 0.00 33 1010.9
20260901231514 98 131 2.0 8.0 0.00 0.00 0.00 33 1010.9
20260901230010 99 148 4.0 11.0 0.00 0.00 0.00 30 1011.0
20260901224523 98 166 4.0 10.0 0.00 0.00 0.00 32 1011.0
20260901223006 96 115 3.0 7.0 0.00 0.00 0.00 32 1011.0
20260901221504 97 155 6.0 12.0 0.00 0.00 0.00 32 1010.9
20260901220004 98 122 5.0 11.0 0.00 0.00 0.00 31 1011.0
20260901214501 97 148 0.0 5.0 0.00 0.00 0.00 31 1011.1
20260901213100 98 169 4.0 10.0 0.00 0.00 0.00 30 1011.2
20260901211559 97 131 4.0 10.0 0.00 0.00 0.00 30 1011.3
20260901210056 98 233 4.0 8.0 0.00 0.00 0.00 30 1011.5
20260901204555 97 105 3.0 7.0 0.00 0.00 0.00 30 1011.7
20260901203052 98 163 5.0 10.0 0.00 0.00 0.00 29 1011.9
20260901201551 97 238 2.0 8.0 0.00 0.00 0.00 30 1012.2
20260901200104 99 160 5.0 11.0 0.00 0.00 0.00 28 1012.4
20260901194557 99 157 5.0 16.0 0.00 0.00 0.00 31 1012.6
20260901193040 98 134 4.0 14.0 0.00 0.00 0.00 30 1012.7
20260901191541 98 229 6.0 11.0 0.00 0.00 0.00 30 1012.8